Regional Weather Roundup
Issued by NWS

Home | Current Version | Previous Version | Text Only | Print | Product List | Glossary Off
Versions: 1 2 3 4 5 6 7 8 9 10 11 12 13 14 15 16 17 18 19 20 21 22 23 24 25 26 27 28 29 30 31 32 33 34 35 36 37 38 39 40 41 42 43 44 45 46 47 48 49 50

000
ASUS43 KMKX 260659
RWRWI

WISCONSIN REGIONAL WEATHER ROUNDUP
NATIONAL WEATHER SERVICE MILWAUKEE/SULLIVAN WI
100 AM CST MON JAN 26 2015

NOTE: "FAIR" INDICATES FEW OR NO CLOUDS BELOW 12,000 FEET WITH NO
SIGNIFICANT WEATHER AND/OR OBSTRUCTIONS TO VISIBILITY.

WIZ001-002-006>008-014>016-023>028-260800-
NORTHWEST WISCONSIN

CITY           SKY/WX    TMP DP  RH WIND       PRES   REMARKS
SUPERIOR ARPT  CLOUDY    19  13  79 CALM      29.89F
ASHLAND        CLOUDY    15   8  73 SW3       29.91F
HAYWARD        CLOUDY    17   8  67 S8        29.89F WCI   7
SIREN          CLOUDY    21  12  68 S9        29.91F WCI  11
CUMBERLAND     CLOUDY    18  10  73 S9        29.92F WCI   6
RICE LAKE      CLOUDY    17  11  77 S5        29.96F WCI   9
CHETEK         CLOUDY    14  10  84 CALM      29.95F
LADYSMITH      CLOUDY    16  10  77 S7        29.96F WCI   6
EAU CLAIRE     NOT AVBL
MENOMONIE      CLOUDY    19  12  74 SE3       29.98F
NEW RICHMOND   CLOUDY    19  15  82 S7        29.95F WCI  10
OSCEOLA        CLOUDY    21  16  81 S8        29.96F WCI  11
$$

WIZ003>005-009-010-017-018-260800-
NORTH CENTRAL WISCONSIN

CITY           SKY/WX    TMP DP  RH WIND       PRES   REMARKS
MANITOWISH WTR CLOUDY    10   3  75 S5        29.90F WCI   1
ARBOR VITAE    PTCLDY    11   5  76 S3        29.91F
WOODRUFF       PTCLDY    11   5  76 S3        29.91F
RHINELANDER    PTCLDY    10   3  73 S5        29.91F WCI   2
EAGLE RIVER    PTCLDY     9   3  76 CALM      29.91F
LAND O LAKES   MOCLDY     6   2  83 CALM      29.91F
PHILLIPS       CLOUDY    10   5  80 S5        29.91F WCI   2
TOMAHAWK       PTCLDY     8   4  82 CALM      29.94F
MEDFORD        PTCLDY    10   4  77 S7        29.94F WCI  -1
MERRILL        PTCLDY     9   5  84 CALM      29.95F
$$

WIZ029-030-035-036-043>047-260800-
CENTRAL WISCONSIN

CITY           SKY/WX    TMP DP  RH WIND       PRES   REMARKS
WAUSAU         PTCLDY    10   4  76 S7        29.95F WCI  -1
MOSINEE        PTCLDY    10   7  85 S5        29.99F WCI   2
MARSHFIELD     PTCLDY    12   5  73 S8        29.96F WCI   0
STEVENS POINT  PTCLDY     7   3  85 CALM      30.01F
WAUPACA        PTCLDY    12   7  81 CALM      30.02F
WAUTOMA        NOT AVBL
WISC RAPIDS    PTCLDY     9   4  80 S3        30.01F
CAMP DOUGLAS   NOT AVBL
$$

WIZ011>013-019>022-031-037>040-048>050-260800-
NORTHEAST WISCONSIN

CITY           SKY/WX    TMP DP  RH WIND       PRES   REMARKS
ANTIGO         PTCLDY     8   3  82 SW5       29.95F WCI  -1
SHAWANO        PTCLDY    12   8  83 CALM      30.03F
OCONTO         PTCLDY     8   6  92 CALM      30.03F
STURGEON BAY   CLEAR     10   7  85 CALM      30.03F
GREEN BAY      PTCLDY    12   8  84 CALM      30.02F
MANITOWOC      PTCLDY    14  10  85 NW3       30.02F
APPLETON       PTCLDY    14   5  67 N5        30.01F WCI   6
CLINTONVILLE   PTCLDY    12   7  79 CALM      30.02F
OSHKOSH        PTCLDY    14   6  70 W5        30.01F WCI   6
$$

WIZ032>034-041-042-053>061-260800-
SOUTHWEST WISCONSIN

CITY           SKY/WX    TMP DP  RH WIND       PRES   REMARKS
LA CROSSE      CLEAR     21  14  74 S6        30.02F WCI  13
SPARTA         CLEAR     14  11  88 CALM      30.04F
VIROQUA        CLEAR     17  11  79 S3        30.00S
BOSCOBEL       PTCLDY    16  10  77 CALM      30.05F
PRAIRIE DU CHI CLEAR     16  12  85 CALM      30.06S
PLATTEVILLE    PTCLDY    17  12  80 NE3       30.02F
$$

WIZ056-057-062-063-064-067-068-260800-
SOUTH CENTRAL WISCONSIN

CITY           SKY/WX    TMP DP  RH WIND       PRES   REMARKS
REEDSBURG      CLEAR     13   9  85 CALM      30.02F
BARABOO/DELLS  CLEAR     11   7  86 CALM      30.02F
LONE ROCK      NOT AVBL
MINERAL POINT  NOT AVBL
MADISON        PTCLDY    14   9  80 CALM      30.02F
MIDDLETON      PTCLDY    13   9  83 W5        30.03S WCI   5
WATERTOWN      CLEAR     13  10  86 N3        30.00F
MONROE         PTCLDY    16  12  86 NW7       30.00F WCI   6
JANESVILLE     PTCLDY    18  12  79 N3        30.01S
$$

WIZ051-052-058>065-066-070>072-260800-
SOUTHEAST WISCONSIN

CITY           SKY/WX    TMP DP  RH WIND       PRES   REMARKS
MILWAUKEE      MOCLDY    19  12  74 NW8       30.01R WCI   9
WAUKESHA       CLEAR     12  10  92 W3        30.01F
MILWAUKEE/TIMM PTCLDY    16  10  79 N5        30.02F WCI   9
RACINE         MOCLDY    24  15  68 E6        30.02R WCI  17
BURLINGTON     CLEAR     14  10  84 N8        30.00S WCI   3
KENOSHA        MOCLDY    17  13  84 NW7       30.00R WCI   8
FOND DU LAC    FLURRIES  13   7  77 NW5       30.02F WCI   5
SHEBOYGAN      FAIR      13   8  81 CALM      30.01F
WEST BEND      CLEAR     14  10  85 CALM      30.01S
JUNEAU         CLEAR     13   8  79 NW5       30.02F WCI   5
$$

LSZ147-162-260800-
LAKE SUPERIOR

STATION/POSITION TIME  TEMP    WIND        PRES    WAVE
                       AIR SEA DIR/SP/G            HT/PER
                 (UTC) (F)     (DEG/KT/KT) (MB)    (FT/S)
DEVILS ISLAND    0600   20     200/  7/ 10 1015.0F
PORT WING        0600   19     170/  9/ 15 1013.2
SAXON HARBOR     0600   14        CALM     1014.2F
$$

LMZ867-665-643>646-260800-
LAKE MICHIGAN

STATION/POSITION TIME  TEMP    WIND        PRES    WAVE
                       AIR SEA DIR/SP/G            HT/PER
                 (UTC) (F)     (DEG/KT/KT) (MB)    (FT/S)
NORTHPORT PIER   0613   10     280/  1/  6 1016.9F
SISTER BAY       0613    9        CALM       N/A
KEWAUNEE LAKESHO 0600   14     290/  4/  7 1016.4R
SHEBOYGAN LAKESH 0600   23      80/  9/ 11 1018.2R
PORT WASHINGTON  0600   18        CALM     1017.6S
MILWAUKEE LAKESH 0600   26      50/  8/ 10   N/A
KENOSHA   LAKESH 0600   26      70/ 13/ 20 1015.9S
$$

TC  - TEMPERATURE IN CELSIUS
VSB - VISIBILITY IN STATUTE MILES
WCI - WIND CHILL INDEX
HX  - HEAT INDEX




USA.gov is the U.S. government's official web portal to all federal, state and local government web resources and services.